Location: Oberkirch
(48.5323°N, 8.0787°E)
Time: 11:29:04
(UTC+00:00)

A-11 Canister half - All Passes

Search period start: 16 February 2026 00:00
Search period end: 26 February 2026 00:00
Orbit: 1512 x 1687 km, 47.2° (Epoch: 16 February)

Date Brightness Start Highest point End Pass type
(mag) Time Alt. Az. Time Alt. Az. Time Alt. Az.
16 Feb - 01:47:49 10° WNW 01:57:35 67° SSW 02:06:58 10° ESE visible
16 Feb - 03:53:17 10° W 04:01:19 31° SW 04:09:08 10° SSE visible
16 Feb - 19:13:25 10° S 19:21:17 27° SE 19:29:03 10° E visible
16 Feb - 21:15:02 10° SW 21:24:57 61° SSE 21:34:35 10° ENE visible
16 Feb - 23:19:36 10° W 23:29:42 84° S 23:39:27 10° E night (unlit)
17 Feb - 01:24:44 10° W 01:34:33 69° SSW 01:43:59 10° ESE visible
17 Feb - 03:30:07 10° WNW 03:38:22 33° SW 03:46:23 10° SSE visible
17 Feb - 18:50:41 10° S 18:58:19 25° SE 19:05:52 10° E visible
17 Feb - 20:52:01 10° SW 21:01:54 59° SSE 21:11:32 10° ENE visible
17 Feb - 22:56:31 10° W 23:06:38 84° S 23:16:24 10° E visible
18 Feb - 01:01:38 10° W 01:11:31 71° SSW 01:21:01 10° ESE visible
18 Feb - 03:06:58 10° WNW 03:15:24 35° SW 03:23:35 10° SSE visible
18 Feb - 18:27:58 10° S 18:35:22 23° SE 18:42:40 10° E visible
18 Feb - 20:29:01 10° SW 20:38:52 57° SSE 20:48:29 10° ENE visible
18 Feb - 22:33:25 10° W 22:43:33 83° S 22:53:22 10° E visible
19 Feb - 00:38:33 10° W 00:48:29 72° SSW 00:58:01 10° ESE visible
19 Feb - 02:43:50 10° WNW 02:52:27 37° SW 03:00:48 10° SSE visible
19 Feb - 18:05:19 10° S 18:12:24 22° SE 18:19:26 10° E visible
19 Feb - 20:06:03 10° SW 20:15:50 55° SSE 20:25:26 10° ENE visible
19 Feb - 22:10:19 10° WSW 22:20:29 83° S 22:30:19 10° E visible
20 Feb - 00:15:27 10° W 00:25:26 74° SSW 00:35:02 10° ESE night (unlit)
20 Feb - 02:20:42 10° WNW 02:29:29 39° SW 02:37:58 10° SSE visible
20 Feb - 04:31:01 10° WSW 04:32:03 10° WSW 04:33:05 10° SW visible
20 Feb - 17:42:41 10° S 17:49:28 20° SE 17:56:11 10° E visible
20 Feb - 19:43:03 10° SW 19:52:48 53° SSE 20:02:22 10° ENE visible
20 Feb - 21:47:13 10° WSW 21:57:24 82° S 22:07:16 10° E visible
20 Feb - 23:52:21 10° W 00:02:23 76° SSW 00:12:01 10° ESE visible
21 Feb - 01:57:34 10° WNW 02:06:31 41° SW 02:15:08 10° SSE visible
21 Feb - 04:06:23 10° WSW 04:09:10 12° WSW 04:11:56 10° SW visible
21 Feb - 17:20:06 10° SSE 17:26:31 19° SE 17:32:54 10° E visible
21 Feb - 19:20:06 10° SW 19:29:46 51° SSE 19:39:18 10° ENE visible
21 Feb - 21:24:08 10° WSW 21:34:19 81° S 21:44:13 10° E visible
21 Feb - 23:29:15 10° W 23:39:19 77° SSW 23:49:00 10° ESE visible
22 Feb - 01:34:27 10° WNW 01:43:32 43° SW 01:52:18 10° SSE night (unlit)
22 Feb - 03:42:31 10° W 03:46:16 13° WSW 03:49:59 10° SW visible
22 Feb - 16:57:34 10° SSE 17:03:35 18° SE 17:09:33 10° E daylight
22 Feb - 18:57:08 10° SW 19:06:45 49° SE 19:16:14 10° ENE visible
22 Feb - 21:01:04 10° WSW 21:11:15 80° S 21:21:11 10° E visible
22 Feb - 23:06:10 10° W 23:16:16 78° SSW 23:26:00 10° ESE visible
23 Feb - 01:11:20 10° WNW 01:20:33 45° SW 01:29:26 10° SSE night (unlit)
23 Feb - 03:18:53 10° W 03:23:23 14° WSW 03:27:49 10° SSW night (unlit)
23 Feb - 16:35:06 10° SSE 16:40:39 16° SE 16:46:10 10° E daylight
23 Feb - 18:34:12 10° SW 18:43:44 47° SE 18:53:08 10° ENE visible
23 Feb - 20:37:58 10° WSW 20:48:10 79° SSE 20:58:07 10° E visible
23 Feb - 22:43:03 10° W 22:53:12 79° SSW 23:02:58 10° ESE visible
24 Feb - 00:48:13 10° WNW 00:57:33 47° SW 01:06:33 10° SE night (unlit)
24 Feb - 02:55:22 10° W 03:00:28 16° SW 03:05:31 10° SSW night (unlit)
24 Feb - 16:12:43 10° SSE 16:17:43 15° SE 16:22:42 10° E daylight
24 Feb - 18:11:17 10° SSW 18:20:43 45° SE 18:30:04 10° ENE visible
24 Feb - 20:14:55 10° WSW 20:25:06 78° SSE 20:35:04 10° E visible
24 Feb - 22:19:58 10° W 22:30:07 80° S 22:39:56 10° ESE visible
25 Feb - 00:25:07 10° WNW 00:34:33 49° SW 00:43:39 10° SE visible
25 Feb - 02:31:56 10° W 02:37:34 17° SW 02:43:06 10° SSW night (unlit)
25 Feb - 15:50:26 10° SSE 15:54:48 14° ESE 15:59:09 10° E daylight
25 Feb - 17:48:22 10° SSW 17:57:42 43° SE 18:06:59 10° ENE visible
25 Feb - 19:51:50 10° WSW 20:02:01 77° SSE 20:12:01 10° E visible
25 Feb - 21:56:52 10° W 22:07:03 81° S 22:16:55 10° ESE visible
